Flag for China Weather past 2 weeks in Guangzhou, Guangdong, China

68 °F

Passing clouds.

Feels Like: 68 °F
Forecast: 59 / 75 °F
Wind: 8 mph from North

Location: Canton Airport

Current Time: Nov 29, 2015 at 5:48:33 PM

Latest Report: Nov 29, 2015 at 5:30 PM

Visibility: 4 mi

Pressure: 30.12 "Hg

Humidity: 64%

Dew point: 55 °F

Location of GuangzhouLocation

Historic Weather in Guangzhou — Graph


Guangzhou temperature yesterday

Maximum temperature yesterday: 68 °F (at 2:30 PM)
Minimum temperature yesterday: 55 °F (at 1:30 AM)
Average temperature yesterday: 61 °F

Past Weeks' High & Low Weather Summary

High88 °F (Nov 18, 2:00 PM)100% (Nov 17, 4:30 AM)30.30 "Hg (Nov 17, 4:30 AM)
Low54 °F (Nov 26, 5:00 AM)33% (Nov 26, 3:30 PM)29.83 "Hg (Nov 16, 2:30 PM)
Average72 °F73%30.06 "Hg
* Reported Nov 14 4:00 PM — Nov 29 4:30 PM, Guangzhou, Weather by CustomWeather, © 2015

Note: Actual official high and low records may vary slightly from our data, if they occured in-between our weather recording intervals... More about our weather records


Guangzhou weather history for previous 24 hours

Time TempWeatherWind HumidityBarometerVisibility
4:30 PM
Sun, Nov 29
70 °FScattered clouds.10 mph60%30.12 "Hg6 mi
4:00 PM70 °FPassing clouds.10 mph60%30.12 "Hg6 mi
2:30 PM72 °FPassing clouds.13 mph57%30.12 "Hg6 mi
1:00 PM73 °FScattered clouds.6 mph53%30.15 "Hg5 mi
12:30 PM72 °FPartly sunny.1 mph57%30.18 "Hg5 mi
12:00 PM70 °FPartly sunny.1 mph60%30.21 "Hg5 mi
11:30 AM68 °FPartly sunny.3 mph64%30.21 "Hg5 mi
11:00 AM68 °FPartly sunny.6 mph60%30.24 "Hg5 mi
10:30 AM68 °FPartly sunny.3 mph60%30.24 "Hg5 mi
10:00 AM66 °FPartly sunny.1 mph64%30.24 "Hg5 mi
9:30 AM64 °FPartly sunny.3 mph68%30.24 "Hg5 mi
9:00 AM64 °FPartly sunny.1 mph68%30.24 "Hg4 mi
8:30 AM63 °FPartly sunny.1 mph73%30.24 "Hg4 mi
8:00 AM61 °FFog.1 mph77%30.21 "Hg3 mi
7:30 AM61 °FFog.1 mph77%30.21 "Hg3 mi
7:00 AM61 °FPartly sunny.1 mph77%30.18 "Hg4 mi
6:00 AM61 °FClear.3 mph77%30.18 "Hg4 mi
5:30 AM61 °FClear.3 mph77%30.18 "Hg4 mi
4:30 AM61 °FClear.3 mph77%30.18 "Hg4 mi
4:00 AM61 °FClear.1 mph83%30.18 "Hg4 mi
3:30 AM61 °FClear.3 mph77%30.21 "Hg4 mi
3:00 AM61 °FClear.No wind77%30.21 "Hg4 mi
2:30 AM61 °FClear.1 mph72%30.21 "Hg4 mi
2:00 AM61 °FClear.1 mph77%30.21 "Hg4 mi
1:30 AM61 °FClear.1 mph72%30.21 "Hg4 mi
1:00 AM61 °FClear.1 mph77%30.21 "Hg4 mi
12:30 AM61 °FClear.3 mph77%30.21 "Hg5 mi
12:00 AM61 °FClear.1 mph77%30.24 "Hg10 mi
11:30 PM
Sat, Nov 28
61 °FClear.No wind77%30.24 "Hg10 mi
11:00 PM61 °FClear.1 mph77%30.24 "Hg10 mi
10:30 PM61 °FClear.1 mph77%30.24 "Hg10 mi
10:00 PM61 °FClear.1 mph77%30.24 "Hg10 mi
9:30 PM61 °FClear.3 mph72%30.21 "Hg10 mi
9:00 PM61 °FClear.1 mph72%30.21 "Hg10 mi
8:30 PM61 °FPassing clouds.3 mph72%30.21 "HgN/A
8:00 PM61 °FClear.3 mph72%30.18 "Hg10 mi
7:30 PM61 °FClear.3 mph77%30.18 "Hg10 mi
7:00 PM63 °FClear.3 mph68%30.18 "Hg10 mi
6:30 PM64 °FClear.3 mph64%30.18 "Hg10 mi
6:00 PM64 °FClear.3 mph64%30.18 "Hg10 mi
5:30 PM66 °FSunny.6 mph56%30.18 "Hg10 mi
5:00 PM68 °FPassing clouds.6 mph53%30.15 "HgN/A
Weather by CustomWeather, © 2015

See weather overviewHow to use our weather pages